Wind_Speed
38 37 38 39 41 42 39 35 33 31 31 31 30 30 28 27 27 26 24 23 22 20 19 18 17 16 16 15 14 14 13 13 12 12 12 11 11 10 10 10 10 10 10 10 11 11 11 11 12
39 39 40 41 43 42 39 36 35 33 32 32 32 32 30 29 29 27 26 25 24 23 21 21 20 19 18 17 16 16 16 15 15 14 13 13 12 12 12 11 11 12 12 12 12 12 12 13 13
39 40 41 43 44 42 38 36 36 35 35 34 34 33 33 32 31 30 28 27 26 25 24 23 22 21 20 19 19 18 18 17 16 16 15 14 14 13 13 13 13 13 13 13 13 13 14 14 14
40 41 43 44 43 40 37 37 37 37 37 37 36 36 35 34 33 32 31 30 29 27 27 26 25 24 22 21 21 20 19 19 18 17 16 16 15 15 15 15 15 15 15 15 15 15 15 16 16
41 42 44 44 42 39 38 38 38 38 38 38 38 38 37 36 35 34 33 32 31 30 29 28 27 26 25 23 23 22 21 20 20 19 18 17 17 17 16 16 16 16 16 16 16 17 17 17 17
43 44 45 44 41 38 38 39 39 39 39 39 39 40 39 38 37 35 35 34 34 33 32 31 30 28 27 26 25 24 23 22 21 20 20 19 19 18 18 18 17 17 17 17 18 18 18 18 18
43 44 44 43 41 39 38 39 40 40 40 40 40 40 40 40 38 37 36 35 35 34 33 33 32 31 30 28 27 25 25 24 23 22 22 21 20 20 20 19 19 19 19 19 19 19 19 19 19
43 44 44 43 41 38 38 40 41 41 41 41 41 42 41 40 39 39 38 37 36 35 35 34 33 32 31 30 28 27 26 26 25 24 23 23 22 22 22 22 21 21 21 21 21 20 21 21 21
43 45 44 42 40 38 39 41 42 42 42 42 41 41 42 41 40 40 40 39 37 36 36 36 35 34 33 32 30 29 28 28 27 26 25 25 24 24 24 23 23 23 22 22 22 22 22 22 22
44 45 43 41 40 39 39 41 42 42 42 43 42 40 41 41 41 41 40 39 38 38 37 37 36 35 34 33 32 31 30 30 29 28 27 27 26 26 25 25 24 24 24 24 23 23 24 23 24
44 44 42 41 40 40 40 41 42 43 43 42 42 41 41 41 41 41 40 40 39 38 38 37 37 36 35 34 34 32 32 31 30 30 29 28 28 27 27 26 26 26 25 25 25 25 25 25 25
44 43 43 41 41 41 40 41 43 44 42 42 42 41 40 41 41 41 41 41 41 40 39 38 38 37 36 35 34 34 33 33 32 31 31 30 29 29 29 28 28 27 27 27 27 27 26 26 26
43 43 43 42 43 42 41 41 43 44 44 44 43 42 41 41 41 42 42 42 41 41 40 39 38 38 37 36 35 35 34 34 33 32 32 31 31 31 30 30 29 29 29 29 29 28 28 28 28
42 43 43 43 43 43 42 42 43 43 44 44 44 42 42 43 42 42 42 41 41 41 41 40 39 39 38 37 36 36 35 35 34 33 33 33 32 32 31 31 30 30 30 30 29 29 29 29 29
42 43 43 43 43 43 43 42 42 43 44 44 44 43 42 42 42 42 41 41 41 41 41 41 40 39 38 37 37 37 37 36 35 34 34 34 33 33 32 31 31 31 31 31 30 30 31 31 31
41 43 44 43 42 42 44 43 42 44 45 45 44 44 43 42 41 41 41 41 41 41 41 41 41 40 39 38 38 38 38 36 36 35 35 34 34 33 33 32 32 32 32 32 32 32 32 32 32
40 41 41 41 42 43 44 43 42 44 44 44 44 45 45 43 42 41 41 41 41 41 41 42 42 41 40 39 38 38 38 37 36 36 36 35 35 34 34 33 33 33 33 33 33 32 32 32 32
37 38 39 40 40 41 42 43 43 44 44 44 43 44 44 43 42 41 41 41 41 41 41 41 41 41 41 40 39 39 39 38 37 37 37 36 35 35 34 34 34 33 34 33 33 33 33 33 32
36 36 37 38 39 40 41 40 42 42 43 43 44 44 44 43 42 42 42 41 41 41 41 41 41 41 41 41 40 40 39 39 39 38 37 37 36 35 35 35 35 34 34 33 33 33 33 33 33
36 36 34 35 36 39 40 39 40 41 42 42 44 45 45 43 42 42 42 41 41 41 41 40 41 41 41 40 40 40 39 39 39 38 38 37 37 36 36 36 35 35 34 34 33 33 33 34 33
34 34 33 33 34 36 38 40 40 40 42 42 44 44 44 44 43 42 42 42 41 40 40 40 41 40 40 40 40 40 39 39 39 39 38 38 37 36 37 36 35 34 34 34 33 33 33 33 33
33 33 32 33 34 35 37 39 39 39 40 41 42 43 42 42 43 42 42 42 41 41 40 40 40 40 40 41 41 40 39 39 39 39 39 39 38 37 36 36 36 35 34 33 33 33 33 33 33
31 32 31 31 32 34 36 38 38 39 39 39 40 41 41 41 41 41 41 41 41 41 41 40 40 40 40 40 41 41 39 38 39 39 39 38 37 37 37 36 36 36 35 34 33 33 33 33 33
28 30 31 30 31 32 32 35 36 38 37 37 38 39 40 41 41 41 41 41 41 41 40 40 40 39 39 39 40 41 40 38 38 39 38 38 37 37 37 37 37 36 36 35 34 34 34 34 34
25 26 28 29 31 31 30 33 34 34 35 35 37 38 39 40 41 41 41 41 40 40 40 40 40 40 39 39 39 40 40 40 39 39 39 38 38 38 37 36 36 36 36 35 35 35 34 34 34
24 25 27 28 29 30 30 32 33 32 33 34 36 38 39 39 40 41 41 40 40 39 40 40 41 41 40 40 40 40 40 40 40 39 39 38 39 38 37 36 36 35 36 36 36 35 34 35 35
25 25 26 26 27 28 28 29 31 31 32 33 35 37 38 39 40 40 40 40 39 39 40 40 40 41 40 40 40 40 40 39 38 38 38 38 38 37 37 35 35 36 36 36 36 35 35 35 35
24 25 26 26 26 27 28 28 29 30 31 32 33 35 37 38 39 41 41 40 40 40 40 41 41 41 41 40 40 40 40 40 39 38 37 37 37 37 37 35 35 36 36 35 35 35 35 35 35
24 26 27 26 26 26 28 27 26 27 28 30 31 32 34 35 37 39 39 40 40 40 41 41 41 41 42 41 40 39 40 40 38 38 38 38 37 37 37 36 35 35 36 36 35 35 35 35 36
24 25 26 26 26 26 27 26 25 26 27 28 30 31 32 33 34 36 37 38 39 40 41 41 41 41 41 41 40 40 40 40 39 38 38 37 37 37 37 36 35 34 35 35 35 35 36 36 36
Wind_Direction
237 237 237 236 236 236 236 235 233 232 231 231 231 231 231 230 230 231 230 231 231 231 230 230 229 229 231 232 236 239 242 245 249 253 257 258 259 261 265 270 273 276 279 281 283 283 285 287 289
238 237 237 236 236 236 235 234 233 233 232 232 232 232 232 231 231 231 231 231 232 232 231 231 231 232 234 236 238 241 245 248 251 253 256 257 259 262 265 269 272 274 277 279 282 283 283 285 288
238 237 237 236 237 237 235 234 234 233 233 232 232 232 232 232 231 231 231 232 232 232 233 233 234 234 236 238 240 243 245 248 252 253 254 257 260 263 266 269 272 274 276 277 280 282 284 286 287
237 236 236 236 237 236 234 233 233 233 232 232 232 233 233 233 233 232 232 233 233 233 234 236 236 236 237 239 241 243 245 248 250 252 255 257 259 263 266 269 272 274 276 277 279 281 283 284 286
237 236 236 236 236 234 233 232 232 232 232 232 233 233 233 233 234 233 233 235 235 235 236 237 238 238 238 239 241 242 244 247 248 251 254 256 258 262 265 268 271 274 276 277 279 280 281 283 285
237 236 236 236 236 234 233 233 233 232 232 233 233 233 233 233 234 234 234 235 236 237 237 238 238 239 240 240 240 242 243 245 247 249 253 255 258 262 266 268 270 273 274 276 279 280 280 281 283
238 238 237 237 235 233 232 233 234 233 233 233 234 234 233 232 233 234 235 235 236 237 237 238 239 239 240 241 241 242 243 245 246 249 252 255 258 261 265 267 270 271 273 276 278 278 278 279 282
238 238 237 236 235 233 232 233 234 234 233 233 233 234 233 233 234 234 235 235 236 236 237 238 238 239 240 240 240 241 243 245 246 249 252 255 258 261 264 266 269 271 273 275 276 276 277 278 280
237 238 238 237 236 234 232 233 233 234 233 233 233 234 234 234 234 234 235 235 235 236 236 237 238 239 239 239 240 241 243 245 246 248 251 254 257 260 264 266 269 271 273 274 275 275 275 277 280
237 237 238 237 236 234 232 233 233 233 233 233 232 232 233 234 234 234 234 235 235 235 235 236 237 238 239 239 240 241 243 244 246 247 250 253 257 260 263 266 269 271 273 273 274 276 275 277 280
238 237 237 236 235 233 232 233 233 233 233 233 233 233 233 234 234 234 234 234 234 235 235 236 237 238 238 239 240 240 242 244 245 247 250 253 256 259 262 265 267 270 272 272 275 276 277 277 280
237 236 236 236 235 233 233 233 233 233 233 233 232 232 233 234 234 234 233 233 233 234 234 235 236 238 238 239 239 239 241 243 245 247 250 253 256 258 261 264 267 269 271 272 274 275 278 278 280
236 235 234 234 234 233 232 233 233 233 232 231 231 232 233 234 233 233 234 233 233 233 233 234 236 237 237 238 239 239 241 243 246 247 250 253 256 259 262 264 267 268 270 271 273 274 276 279 280
235 235 234 232 232 232 232 232 233 231 231 232 231 231 232 233 233 234 234 234 233 233 233 234 235 236 238 238 239 240 241 244 246 248 250 253 256 259 262 264 266 267 269 271 273 274 276 279 280
234 234 233 231 231 231 232 232 232 230 231 232 232 231 231 232 234 234 234 234 234 233 233 233 234 235 236 237 238 239 241 243 246 248 251 253 256 259 261 263 265 267 269 270 272 273 275 277 279
232 233 232 230 231 231 232 232 231 231 231 232 232 232 231 232 233 234 234 234 233 234 233 233 234 234 235 237 238 240 242 244 246 248 251 254 256 258 259 261 264 266 269 270 272 273 275 277 278
229 231 232 230 231 233 233 232 231 232 232 231 232 233 232 233 233 233 234 234 234 233 234 234 234 235 236 237 237 239 241 243 245 247 250 253 255 257 259 261 263 266 268 270 272 273 275 276 278
228 230 230 230 231 233 234 233 232 234 233 231 231 232 232 232 232 232 233 233 234 234 234 234 234 235 236 237 237 239 241 243 246 247 250 253 255 257 259 262 264 267 268 270 272 272 274 276 277
229 231 232 232 233 235 235 234 233 233 234 231 230 230 231 232 232 233 232 232 232 232 233 234 235 235 236 237 237 238 240 243 245 247 249 252 255 257 259 262 264 266 267 269 271 272 273 275 277
229 230 230 232 232 234 235 234 233 233 232 231 230 229 230 231 231 232 231 231 232 233 233 234 235 235 236 237 237 238 241 243 245 247 250 252 255 257 259 262 263 264 267 268 271 272 273 274 276
228 231 231 232 232 234 235 234 232 232 231 230 230 229 229 230 230 230 231 231 233 233 233 233 235 236 236 237 237 238 241 244 245 248 250 252 254 257 259 260 262 264 266 268 270 271 272 273 275
229 230 232 233 233 233 233 234 233 232 231 230 228 228 228 230 231 230 231 231 233 233 234 234 235 236 237 237 238 239 240 243 245 247 249 251 252 255 257 259 260 263 265 267 269 271 273 273 275
230 230 232 234 236 237 236 236 233 232 231 229 228 227 227 229 230 231 231 231 233 233 234 234 235 235 236 238 239 240 241 244 245 246 248 250 252 253 256 258 261 263 265 266 268 271 274 275 276
230 230 232 233 235 237 237 238 235 232 231 230 230 229 229 229 229 231 231 231 232 232 233 234 234 235 236 238 240 241 243 244 245 247 248 251 253 254 256 258 262 262 264 267 268 271 273 275 277
225 227 229 231 234 236 236 238 236 233 233 233 232 231 229 229 229 230 231 232 232 232 233 233 234 234 236 239 240 242 245 245 247 248 250 251 252 254 257 259 261 263 264 267 269 271 274 276 277
224 224 227 230 233 235 235 236 235 234 233 233 232 231 230 229 230 231 232 233 233 232 232 233 234 235 236 239 241 244 246 247 249 250 250 251 253 255 257 259 261 263 264 266 269 270 273 275 276
224 226 227 232 237 237 235 235 236 235 235 234 233 232 231 231 231 233 233 233 234 233 233 233 233 234 236 239 242 243 245 246 249 250 250 251 254 254 255 259 261 263 265 267 269 270 272 274 277
228 228 227 232 236 238 238 237 237 237 237 235 234 234 234 234 233 233 233 234 235 234 233 233 234 234 235 238 241 243 244 246 248 249 250 252 254 254 255 258 260 263 266 268 269 271 272 275 277
228 226 230 233 234 240 242 240 241 241 239 238 237 237 237 235 235 236 236 235 236 236 235 235 235 236 237 238 240 242 244 246 247 249 249 251 253 254 254 258 260 262 265 267 268 270 272 274 277
228 228 232 234 235 239 241 241 243 243 240 239 239 238 237 237 237 237 236 236 236 237 237 236 236 238 238 239 240 241 244 246 247 248 248 250 253 255 255 257 259 261 264 266 269 271 272 274 278
Height
5794 5797 5800 5803 5805 5807 5811 5819 5823 5827 5829 5832 5835 5837 5840 5843 5846 5850 5852 5853 5854 5856 5858 5860 5861 5863 5864 5866 5867 5868 5870 5870 5871 5872 5873 5873 5874 5874 5875 5875 5875 5875 5875 5875 5874 5874 5874 5873 5873
5786 5789 5792 5794 5796 5799 5807 5813 5817 5821 5824 5826 5829 5831 5834 5837 5840 5843 5846 5848 5850 5853 5855 5856 5858 5860 5862 5863 5865 5866 5867 5868 5869 5870 5871 5871 5872 5872 5873 5873 5873 5873 5873 5873 5872 5872 5872 5871 5871
5778 5781 5784 5785 5788 5794 5802 5807 5811 5814 5817 5820 5822 5825 5828 5831 5834 5838 5841 5843 5846 5848 5850 5852 5855 5857 5858 5860 5862 5863 5864 5865 5866 5868 5868 5869 5870 5870 5871 5871 5871 5871 5871 5870 5870 5869 5869 5869 5868
5770 5772 5774 5777 5781 5789 5796 5800 5803 5806 5809 5812 5815 5818 5821 5825 5829 5832 5835 5838 5841 5843 5846 5848 5850 5853 5855 5857 5858 5860 5861 5862 5864 5865 5866 5867 5867 5868 5868 5868 5868 5868 5868 5868 5867 5867 5867 5866 5866
5760 5763 5765 5769 5775 5783 5788 5792 5795 5798 5802 5806 5808 5812 5815 5818 5822 5825 5829 5832 5835 5838 5841 5843 5846 5848 5850 5853 5854 5856 5858 5859 5860 5862 5863 5864 5864 5865 5865 5865 5865 5865 5865 5865 5864 5864 5864 5863 5862
5752 5754 5758 5762 5769 5776 5781 5784 5787 5791 5794 5798 5801 5804 5808 5812 5815 5819 5822 5826 5829 5832 5835 5838 5840 5843 5846 5848 5850 5852 5854 5855 5857 5858 5859 5860 5861 5861 5862 5862 5862 5862 5862 5862 5861 5861 5860 5860 5859
5743 5746 5750 5756 5762 5768 5774 5775 5778 5782 5786 5790 5793 5797 5800 5804 5808 5812 5816 5819 5822 5825 5829 5832 5834 5837 5840 5843 5845 5847 5849 5851 5852 5854 5855 5856 5857 5858 5858 5858 5858 5858 5858 5858 5858 5857 5857 5856 5855
5734 5738 5742 5747 5754 5761 5765 5766 5770 5774 5778 5782 5785 5788 5792 5797 5801 5805 5808 5812 5815 5819 5822 5825 5828 5831 5834 5837 5840 5842 5844 5846 5848 5849 5851 5852 5853 5854 5854 5854 5854 5854 5854 5854 5854 5853 5853 5852 5851
5724 5729 5733 5740 5746 5753 5756 5757 5761 5765 5769 5773 5777 5781 5785 5789 5793 5797 5801 5805 5809 5812 5815 5818 5822 5825 5828 5831 5834 5837 5839 5841 5843 5844 5846 5847 5848 5849 5850 5850 5850 5850 5850 5849 5849 5849 5848 5848 5847
5714 5719 5727 5733 5738 5742 5745 5748 5752 5756 5760 5764 5769 5773 5776 5780 5785 5789 5794 5798 5801 5805 5808 5812 5815 5818 5822 5825 5828 5831 5833 5835 5837 5839 5841 5842 5843 5844 5845 5845 5846 5846 5845 5845 5844 5844 5843 5843 5842
5705 5712 5719 5723 5727 5731 5735 5739 5743 5747 5752 5757 5761 5765 5768 5772 5776 5781 5786 5790 5794 5797 5801 5804 5808 5811 5815 5818 5821 5824 5827 5829 5831 5833 5835 5837 5838 5839 5839 5840 5840 5840 5840 5840 5840 5839 5839 5838 5837
5697 5703 5708 5713 5717 5721 5726 5730 5733 5738 5744 5748 5752 5756 5760 5764 5768 5772 5777 5782 5786 5789 5793 5797 5800 5804 5807 5811 5814 5817 5820 5823 5825 5827 5829 5831 5832 5833 5834 5835 5835 5835 5835 5835 5835 5834 5834 5833 5832
5687 5694 5698 5703 5707 5712 5717 5721 5725 5729 5734 5738 5743 5748 5752 5756 5760 5764 5768 5773 5778 5782 5785 5789 5793 5796 5800 5804 5807 5810 5813 5816 5819 5821 5823 5825 5826 5827 5828 5829 5829 5829 5829 5829 5829 5829 5828 5828 5827
5679 5684 5688 5693 5698 5703 5707 5712 5716 5721 5725 5730 5735 5740 5744 5748 5752 5756 5760 5765 5770 5774 5778 5781 5785 5789 5793 5797 5800 5803 5806 5809 5812 5814 5816 5818 5820 5821 5822 5823 5823 5823 5823 5823 5823 5823 5822 5822 5821
5669 5673 5678 5684 5688 5693 5698 5703 5708 5713 5716 5721 5726 5731 5735 5739 5744 5748 5753 5757 5762 5766 5770 5774 5778 5782 5785 5789 5792 5796 5799 5802 5805 5807 5810 5811 5813 5814 5815 5816 5817 5817 5817 5817 5817 5816 5816 5815 5814
5659 5663 5668 5675 5679 5684 5689 5694 5700 5703 5707 5712 5717 5722 5727 5731 5735 5740 5744 5748 5753 5758 5762 5766 5770 5774 5778 5781 5785 5788 5791 5794 5797 5800 5802 5804 5806 5807 5808 5809 5810 5810 5811 5811 5810 5810 5809 5809 5808
5649 5653 5660 5666 5670 5674 5679 5685 5690 5693 5698 5704 5708 5713 5718 5723 5727 5731 5735 5740 5745 5749 5754 5758 5762 5766 5769 5773 5777 5780 5784 5787 5790 5793 5795 5797 5799 5800 5801 5802 5803 5803 5803 5804 5804 5803 5803 5802 5801
5642 5646 5652 5657 5662 5666 5670 5676 5681 5684 5689 5694 5699 5703 5708 5714 5719 5723 5727 5731 5736 5741 5745 5749 5753 5757 5761 5765 5769 5772 5776 5779 5782 5785 5788 5790 5791 5793 5794 5795 5795 5796 5796 5796 5796 5796 5796 5795 5794
5635 5639 5644 5650 5654 5658 5662 5667 5672 5675 5680 5685 5690 5695 5700 5705 5710 5714 5719 5723 5728 5732 5737 5741 5745 5749 5753 5757 5761 5765 5768 5772 5775 5777 5780 5782 5784 5785 5786 5787 5788 5788 5789 5789 5789 5788 5788 5787 5787
5627 5632 5637 5643 5646 5649 5654 5659 5663 5666 5671 5676 5681 5686 5691 5696 5701 5706 5710 5715 5720 5724 5728 5733 5737 5741 5744 5748 5752 5757 5760 5763 5766 5769 5772 5774 5776 5778 5779 5779 5780 5781 5781 5781 5781 5781 5781 5780 5779
5620 5625 5631 5635 5639 5641 5645 5650 5654 5658 5662 5667 5672 5677 5683 5688 5693 5698 5702 5707 5712 5716 5721 5725 5729 5732 5736 5740 5744 5748 5751 5755 5758 5761 5763 5766 5768 5769 5771 5772 5772 5773 5773 5773 5773 5773 5773 5772 5772
5615 5620 5624 5627 5630 5633 5638 5640 5646 5650 5654 5659 5664 5669 5675 5680 5685 5690 5694 5699 5703 5708 5712 5716 5720 5724 5728 5732 5736 5739 5743 5746 5749 5752 5755 5757 5759 5760 5762 5763 5764 5765 5765 5766 5766 5766 5765 5765 5764
5609 5614 5617 5620 5623 5626 5629 5632 5638 5641 5646 5652 5657 5662 5667 5672 5677 5682 5686 5691 5695 5699 5704 5708 5712 5716 5720 5724 5727 5731 5734 5738 5741 5743 5746 5748 5750 5752 5754 5755 5756 5757 5757 5758 5758 5758 5757 5757 5756
5603 5607 5611 5614 5616 5619 5623 5625 5630 5635 5641 5646 5650 5654 5659 5664 5668 5673 5678 5682 5687 5691 5696 5700 5704 5709 5712 5716 5719 5723 5726 5729 5732 5735 5738 5740 5742 5744 5746 5747 5748 5748 5749 5750 5750 5750 5750 5749 5749
5597 5601 5604 5607 5608 5612 5616 5618 5624 5630 5634 5638 5643 5647 5651 5655 5660 5665 5669 5674 5679 5683 5688 5692 5696 5701 5704 5708 5712 5715 5718 5721 5724 5727 5729 5732 5734 5736 5737 5738 5739 5740 5741 5741 5741 5742 5742 5741 5741
5592 5596 5599 5601 5603 5607 5610 5612 5618 5623 5627 5631 5635 5639 5643 5647 5652 5656 5661 5666 5670 5675 5679 5683 5688 5692 5696 5700 5703 5707 5710 5713 5716 5718 5721 5723 5725 5727 5729 5730 5731 5732 5732 5733 5733 5734 5733 5733 5733
5587 5590 5594 5597 5598 5601 5604 5607 5612 5616 5619 5623 5627 5631 5635 5639 5644 5648 5653 5657 5662 5666 5670 5674 5679 5683 5688 5691 5695 5698 5701 5704 5707 5709 5712 5714 5716 5718 5720 5721 5723 5723 5724 5724 5725 5725 5725 5725 5724
5584 5586 5589 5591 5592 5595 5598 5602 5606 5609 5613 5616 5620 5624 5628 5632 5635 5640 5644 5649 5653 5657 5662 5666 5670 5674 5678 5682 5686 5689 5692 5695 5698 5701 5703 5706 5708 5710 5711 5713 5714 5715 5716 5716 5717 5717 5716 5716 5715
5578 5581 5582 5585 5588 5590 5593 5600 5601 5603 5606 5610 5614 5617 5621 5624 5628 5632 5636 5640 5644 5648 5653 5657 5661 5665 5669 5673 5677 5680 5684 5687 5689 5692 5695 5697 5699 5701 5702 5704 5705 5706 5707 5707 5708 5708 5708 5707 5707
5573 5575 5578 5581 5583 5585 5588 5596 5595 5597 5600 5603 5606 5610 5613 5616 5620 5624 5627 5631 5635 5640 5644 5648 5652 5656 5660 5664 5668 5671 5675 5678 5680 5683 5686 5688 5690 5692 5694 5695 5697 5698 5698 5698 5699 5699 5699 5699 5698